Weather History for Ord, NE

Change the Weather History Date:

Thursday, February 16, 2012

  Actual Average Record
Temperature  
Mean Temperature 32 °F 28 °F  
Max Temperature 46 °F 40 °F 66 °F (2011)
Min Temperature 18 °F 15 °F 1 °F (2001)
Degree Days  
Heating Degree Days 33    
Month to date heating degree days 655  
Cooling Degree Days 0    
Month to date cooling degree days 0  
Year to date cooling degree days 0  
Moisture  
Dew Point 23 °F    
Average Humidity 71    
Maximum Humidity 92    
Minimum Humidity 49    
Precipitation  
Precipitation 0.00 in 0.01 in 0.62 in (1932)
Month to date precipitation 0.58 0.28  
Year to date precipitation 0.71 0.65  
Sea Level Pressure  
Sea Level Pressure 30.20 in    
Wind  
Wind Speed 5 mph (WSW)    
Max Wind Speed 12 mph    
Max Gust Speed 16 mph    
Visibility 10 miles    
Events      
T = Trace of Precipitation, MM = Missing Value Source: NWS Daily Summary

Daily Weather History Graph

Daily Weather History Graph

Search for Another Location

Airport:

Trip Planner

Search our weather history database for the weather conditions in past years. The results will help you decide how hot, cold, wet, or windy it might be!

Date:

Astronomy

Feb. 16, 2012 Rise Set
Actual Time 7:30 AM CST 6:09 PM CST
Civil Twilight 7:01 AM CST 6:38 PM CST
Nautical Twilight 6:29 AM CST 7:10 PM CST
Astronomical Twilight 5:57 AM CST 7:43 PM CST
Moon 3:30 AM CST (2/16) 1:00 PM CST (2/16)
Length of Visible Light 11h 36m
Length of Day
10h 39m
Waning Crescent, 28% of the Moon is Illuminated
Feb 16
Waning Crescent
Feb 21
New
Feb 29
First Quarter
Mar 8
Full
Mar 14
Last Quarter

Hourly Weather History & Observations

Time (CST) Temp. Windchill Dew Point Humidity Pressure Visibility Wind Dir Wind Speed Gust Speed Precip Events Conditions
12:53 AM 23.0 °F 18.4 °F 19.0 °F 85% 30.25 in 10.0 mi NW 3.5 mph - N/A   Clear
1:53 AM 21.9 °F 17.2 °F 19.0 °F 89% 30.25 in 10.0 mi West 3.5 mph - N/A   Clear
2:53 AM 23.0 °F 18.4 °F 19.0 °F 85% 30.25 in 10.0 mi North 3.5 mph - N/A   Clear
3:53 AM 24.1 °F 18.2 °F 17.1 °F 75% 30.25 in 10.0 mi WNW 4.6 mph - N/A   Partly Cloudy
4:53 AM 21.9 °F - 17.1 °F 82% 30.26 in 10.0 mi Calm Calm - N/A   Clear
5:53 AM 19.0 °F 13.9 °F 15.1 °F 85% 30.28 in 10.0 mi NW 3.5 mph - N/A   Clear
6:53 AM 19.0 °F - 14.0 °F 81% 30.30 in 10.0 mi Calm Calm - N/A   Clear
7:53 AM 19.0 °F - 14.0 °F 81% 30.32 in 10.0 mi Calm Calm - N/A   Clear
8:53 AM 25.0 °F 19.3 °F 19.0 °F 78% 30.32 in 10.0 mi NNW 4.6 mph - N/A   Clear
9:53 AM 28.0 °F - 21.0 °F 75% 30.31 in 10.0 mi Calm Calm - N/A   Clear
10:53 AM 34.0 °F - 24.1 °F 67% 30.29 in 10.0 mi Calm Calm - N/A   Mostly Cloudy
11:53 AM 39.9 °F 34.5 °F 27.0 °F 60% 30.27 in 10.0 mi WSW 8.1 mph - N/A   Overcast
12:53 PM 42.1 °F 37.1 °F 28.0 °F 58% 30.24 in 10.0 mi SW 8.1 mph - N/A   Clear
1:53 PM 44.1 °F 40.8 °F 28.0 °F 53% 30.19 in 10.0 mi SW 5.8 mph - N/A   Clear
2:53 PM 44.6 °F 39.7 °F 26.6 °F 49% 30.10 in 10.0 mi SW 9.2 mph - N/A   Clear
3:53 PM 45.0 °F 40.6 °F 27.0 °F 49% 30.14 in 10.0 mi SW 8.1 mph - N/A   Overcast
4:53 PM 42.1 °F 36.6 °F 28.0 °F 58% 30.14 in 10.0 mi SW 9.2 mph - N/A   Clear
5:53 PM 39.2 °F 35.0 °F 28.4 °F 65% 30.08 in 10.0 mi West 5.8 mph - N/A   Clear
6:53 PM 35.1 °F 28.6 °F 28.0 °F 76% 30.16 in 10.0 mi SSW 8.1 mph - N/A   Clear
7:53 PM 33.1 °F 25.5 °F 28.0 °F 82% 30.14 in 10.0 mi SSW 9.2 mph - N/A   Clear
8:53 PM 30.0 °F - 26.1 °F 85% 30.12 in 10.0 mi Calm Calm - N/A   Clear
9:53 PM 32.0 °F 24.8 °F 25.0 °F 75% 30.10 in 10.0 mi SW 8.1 mph - N/A   Clear
10:53 PM 30.9 °F 22.8 °F 25.0 °F 79% 30.08 in 10.0 mi SW 9.2 mph - N/A   Clear
11:53 PM 28.9 °F - 25.0 °F 85% 30.06 in 10.0 mi Calm Calm - N/A   Clear